Time,TemperatureF,DewpointF,PressureIn,WindDirection,WindDirectionDegrees,WindSpeedMPH,WindSpeedGustMPH,Humidity,HourlyPrecipIn,Conditions,Clouds,dailyrainin,SolarRadiationWatts/m^2,SoftwareType,DateUTC
2013-06-11 00:02:00,59.6,52.7,29.85,SW,228,0.0,0.0,78,0.00,,,0.00,0,Wunderground v.1.15,2013-06-11 07:02:00,
2013-06-11 00:08:00,59.4,52.5,29.85,SW,228,0.0,0.0,78,0.00,,,0.00,0,Wunderground v.1.15,2013-06-11 07:08:00,
2013-06-11 00:14:00,59.3,52.8,29.85,SW,228,0.0,0.0,79,0.00,,,0.00,0,Wunderground v.1.15,2013-06-11 07:14:00,
2013-06-11 00:20:00,59.3,52.8,29.85,SW,228,0.0,0.0,79,0.00,,,0.00,0,Wunderground v.1.15,2013-06-11 07:20:00,
2013-06-11 00:26:00,59.2,52.7,29.85,SW,228,0.0,0.0,79,0.00,,,0.00,0,Wunderground v.1.15,2013-06-11 07:26:00,
2013-06-11 00:32:00,59.3,52.8,29.85,SW,228,0.0,0.0,79,0.00,,,0.00,0,Wunderground v.1.15,2013-06-11 07:32:00,
2013-06-11 00:38:00,59.4,52.9,29.85,SW,228,0.0,0.0,79,0.00,,,0.00,0,Wunderground v.1.15,2013-06-11 07:38:00,
2013-06-11 00:44:00,59.4,52.9,29.85,SW,228,0.0,0.0,79,0.00,,,0.00,0,Wunderground v.1.15,2013-06-11 07:44:00,
2013-06-11 00:50:00,59.4,52.9,29.85,SW,228,0.0,0.0,79,0.00,,,0.00,0,Wunderground v.1.15,2013-06-11 07:50:00,
2013-06-11 00:56:00,59.3,52.8,29.85,SW,228,0.0,0.0,79,0.00,,,0.00,0,Wunderground v.1.15,2013-06-11 07:56:00,
2013-06-11 01:02:00,59.1,52.9,29.85,SW,228,0.0,0.0,80,0.00,,,0.00,0,Wunderground v.1.15,2013-06-11 08:02:00,
2013-06-11 01:08:00,58.9,52.7,29.85,SW,228,0.0,0.0,80,0.00,,,0.00,0,Wunderground v.1.15,2013-06-11 08:08:00,
2013-06-11 01:14:00,58.7,52.5,29.85,SW,228,0.0,0.0,80,0.00,,,0.00,0,Wunderground v.1.15,2013-06-11 08:14:00,
2013-06-11 01:20:00,58.5,52.4,29.85,SW,228,0.0,0.0,80,0.00,,,0.00,0,Wunderground v.1.15,2013-06-11 08:20:00,
2013-06-11 01:26:00,58.5,52.7,29.85,SW,228,0.0,0.0,81,0.00,,,0.00,0,Wunderground v.1.15,2013-06-11 08:26:00,
2013-06-11 01:32:00,58.5,52.7,29.84,SW,228,0.0,0.0,81,0.00,,,0.00,0,Wunderground v.1.15,2013-06-11 08:32:00,
2013-06-11 01:38:00,58.4,52.6,29.84,SW,228,0.0,0.0,81,0.00,,,0.00,0,Wunderground v.1.15,2013-06-11 08:38:00,
2013-06-11 01:44:00,58.2,52.7,29.84,SW,228,0.0,0.0,82,0.00,,,0.00,0,Wunderground v.1.15,2013-06-11 08:44:00,
2013-06-11 01:50:00,58.1,52.6,29.85,SW,228,0.0,0.0,82,0.00,,,0.00,0,Wunderground v.1.15,2013-06-11 08:50:00,
2013-06-11 01:56:00,58.0,52.5,29.84,SW,228,0.0,0.0,82,0.00,,,0.00,0,Wunderground v.1.15,2013-06-11 08:56:00,
2013-06-11 02:02:00,58.0,52.9,29.84,SW,228,0.0,0.0,83,0.00,,,0.00,0,Wunderground v.1.15,2013-06-11 09:02:00,
2013-06-11 02:08:00,57.9,52.8,29.85,SW,228,0.0,0.0,83,0.00,,,0.00,0,Wunderground v.1.15,2013-06-11 09:08:00,
2013-06-11 02:14:00,58.0,52.5,29.85,SW,228,0.0,0.0,82,0.00,,,0.00,0,Wunderground v.1.15,2013-06-11 09:14:00,
2013-06-11 02:20:00,58.1,52.6,29.84,SW,228,0.0,0.0,82,0.00,,,0.00,0,Wunderground v.1.15,2013-06-11 09:20:00,
2013-06-11 02:26:00,58.1,52.3,29.84,SW,228,0.0,0.0,81,0.00,,,0.00,0,Wunderground v.1.15,2013-06-11 09:26:00,
2013-06-11 02:32:00,58.0,52.2,29.85,SW,228,0.0,0.0,81,0.00,,,0.00,0,Wunderground v.1.15,2013-06-11 09:32:00,
2013-06-11 02:38:00,57.7,52.2,29.84,SW,228,0.0,0.0,82,0.00,,,0.00,0,Wunderground v.1.15,2013-06-11 09:38:00,
2013-06-11 02:44:00,57.6,52.1,29.84,SW,228,0.0,0.0,82,0.00,,,0.00,0,Wunderground v.1.15,2013-06-11 09:44:00,
2013-06-11 02:50:00,57.5,52.0,29.84,SW,228,0.0,0.0,82,0.00,,,0.00,0,Wunderground v.1.15,2013-06-11 09:50:00,
2013-06-11 02:56:00,57.5,52.0,29.84,SW,228,0.0,0.0,82,0.00,,,0.00,0,Wunderground v.1.15,2013-06-11 09:56:00,
2013-06-11 03:02:00,57.4,51.9,29.84,SW,228,0.0,0.0,82,0.00,,,0.00,0,Wunderground v.1.15,2013-06-11 10:02:00,
2013-06-11 03:08:00,57.3,51.9,29.84,SW,228,0.0,0.0,82,0.00,,,0.00,0,Wunderground v.1.15,2013-06-11 10:08:00,
2013-06-11 03:14:00,57.3,51.9,29.84,SW,228,0.0,0.0,82,0.00,,,0.00,0,Wunderground v.1.15,2013-06-11 10:14:00,
2013-06-11 03:20:00,57.3,51.9,29.84,SW,228,0.0,0.0,82,0.00,,,0.00,0,Wunderground v.1.15,2013-06-11 10:20:00,
2013-06-11 03:26:00,57.3,51.9,29.84,SW,228,0.0,0.0,82,0.00,,,0.00,0,Wunderground v.1.15,2013-06-11 10:26:00,
2013-06-11 03:32:00,57.1,51.7,29.84,SW,228,0.0,0.0,82,0.00,,,0.00,0,Wunderground v.1.15,2013-06-11 10:32:00,
2013-06-11 03:38:00,56.9,51.5,29.84,SW,228,0.0,0.0,82,0.00,,,0.00,0,Wunderground v.1.15,2013-06-11 10:38:00,
2013-06-11 03:44:00,56.8,51.4,29.84,SW,228,0.0,0.0,82,0.00,,,0.00,0,Wunderground v.1.15,2013-06-11 10:44:00,
2013-06-11 03:50:00,56.7,51.6,29.84,SW,228,0.0,0.0,83,0.00,,,0.00,0,Wunderground v.1.15,2013-06-11 10:50:00,
2013-06-11 03:56:00,56.7,51.6,29.84,SW,228,0.0,0.0,83,0.00,,,0.00,0,Wunderground v.1.15,2013-06-11 10:56:00,
2013-06-11 04:02:00,56.6,51.5,29.84,SW,228,0.0,0.0,83,0.00,,,0.00,0,Wunderground v.1.15,2013-06-11 11:02:00,
2013-06-11 04:08:00,56.6,51.5,29.84,SW,228,0.0,0.0,83,0.00,,,0.00,0,Wunderground v.1.15,2013-06-11 11:08:00,
2013-06-11 04:14:00,56.6,51.5,29.84,SW,228,0.0,0.0,83,0.00,,,0.00,0,Wunderground v.1.15,2013-06-11 11:14:00,
2013-06-11 04:20:00,56.6,51.5,29.84,SW,228,0.0,0.0,83,0.00,,,0.00,0,Wunderground v.1.15,2013-06-11 11:20:00,
2013-06-11 04:26:00,56.6,51.5,29.84,SW,228,0.0,0.0,83,0.00,,,0.00,0,Wunderground v.1.15,2013-06-11 11:26:00,
2013-06-11 04:32:00,56.6,51.5,29.84,SW,228,0.0,0.0,83,0.00,,,0.00,0,Wunderground v.1.15,2013-06-11 11:32:00,
2013-06-11 04:38:00,56.5,51.4,29.84,SW,228,0.0,0.0,83,0.00,,,0.00,0,Wunderground v.1.15,2013-06-11 11:38:00,
2013-06-11 04:44:00,56.4,51.3,29.84,SW,228,0.0,0.0,83,0.00,,,0.00,0,Wunderground v.1.15,2013-06-11 11:44:00,
2013-06-11 04:50:00,56.2,51.4,29.84,SW,228,0.0,0.0,84,0.00,,,0.00,0,Wunderground v.1.15,2013-06-11 11:50:00,
2013-06-11 04:56:00,56.1,51.3,29.84,SW,228,0.0,0.0,84,0.00,,,0.00,0,Wunderground v.1.15,2013-06-11 11:56:00,
2013-06-11 05:02:00,56.0,51.2,29.84,SW,228,0.0,0.0,84,0.00,,,0.00,0,Wunderground v.1.15,2013-06-11 12:02:00,
2013-06-11 05:08:00,56.1,51.7,29.84,SW,228,0.0,0.0,85,0.00,,,0.00,0,Wunderground v.1.15,2013-06-11 12:08:00,
2013-06-11 05:14:00,56.1,51.3,29.84,SW,228,0.0,0.0,84,0.00,,,0.00,0,Wunderground v.1.15,2013-06-11 12:14:00,
2013-06-11 05:20:00,56.0,51.2,29.84,SW,228,0.0,0.0,84,0.00,,,0.00,0,Wunderground v.1.15,2013-06-11 12:20:00,
2013-06-11 05:26:00,55.9,51.5,29.85,SW,228,0.0,0.0,85,0.00,,,0.00,0,Wunderground v.1.15,2013-06-11 12:26:00,
2013-06-11 05:32:00,55.9,51.5,29.85,SW,228,0.0,0.0,85,0.00,,,0.00,0,Wunderground v.1.15,2013-06-11 12:32:00,
2013-06-11 05:38:00,55.9,51.5,29.85,SW,228,0.0,0.0,85,0.00,,,0.00,0,Wunderground v.1.15,2013-06-11 12:38:00,
2013-06-11 05:44:00,56.0,51.6,29.85,SW,228,0.0,0.0,85,0.00,,,0.00,7,Wunderground v.1.15,2013-06-11 12:44:00,
2013-06-11 05:50:00,56.1,51.7,29.85,SW,228,0.0,0.0,85,0.00,,,0.00,14,Wunderground v.1.15,2013-06-11 12:50:00,
2013-06-11 05:56:00,56.2,51.4,29.85,SW,228,0.0,0.0,84,0.00,,,0.00,25,Wunderground v.1.15,2013-06-11 12:56:00,
2013-06-11 06:02:00,56.3,51.5,29.85,SW,228,0.0,0.0,84,0.00,,,0.00,30,Wunderground v.1.15,2013-06-11 13:02:00,
2013-06-11 06:08:00,56.5,52.0,29.85,SW,228,0.0,0.0,85,0.00,,,0.00,35,Wunderground v.1.15,2013-06-11 13:08:00,
2013-06-11 06:14:00,56.8,52.3,29.85,SW,228,0.0,0.0,85,0.00,,,0.00,35,Wunderground v.1.15,2013-06-11 13:14:00,
2013-06-11 06:20:00,57.0,52.5,29.85,SW,228,1.0,3.0,85,0.00,,,0.00,37,Wunderground v.1.15,2013-06-11 13:20:00,
2013-06-11 06:26:00,57.3,52.8,29.86,SW,228,1.0,3.0,85,0.00,,,0.00,37,Wunderground v.1.15,2013-06-11 13:26:00,
2013-06-11 06:32:00,57.3,52.5,29.86,SW,228,0.0,0.0,84,0.00,,,0.00,40,Wunderground v.1.15,2013-06-11 13:32:00,
2013-06-11 06:38:00,57.2,52.4,29.86,SW,228,0.0,0.0,84,0.00,,,0.00,47,Wunderground v.1.15,2013-06-11 13:38:00,
2013-06-11 06:44:00,57.2,52.7,29.86,SW,228,0.0,0.0,85,0.00,,,0.00,63,Wunderground v.1.15,2013-06-11 13:44:00,
2013-06-11 06:50:00,57.4,52.9,29.85,SW,228,0.0,0.0,85,0.00,,,0.00,77,Wunderground v.1.15,2013-06-11 13:50:00,
2013-06-11 06:56:00,57.7,53.2,29.86,SW,228,0.0,0.0,85,0.00,,,0.00,93,Wunderground v.1.15,2013-06-11 13:56:00,
2013-06-11 07:02:00,58.1,53.6,29.86,SW,228,0.0,0.0,85,0.00,,,0.00,104,Wunderground v.1.15,2013-06-11 14:02:00,
2013-06-11 07:08:00,58.5,53.7,29.85,SW,228,0.0,0.0,84,0.00,,,0.00,95,Wunderground v.1.15,2013-06-11 14:08:00,
2013-06-11 07:14:00,58.9,54.1,29.85,SW,228,0.0,0.0,84,0.00,,,0.00,90,Wunderground v.1.15,2013-06-11 14:14:00,
2013-06-11 07:20:00,59.4,54.2,29.86,SW,228,0.0,0.0,83,0.00,,,0.00,104,Wunderground v.1.15,2013-06-11 14:20:00,
2013-06-11 07:26:00,59.8,54.3,29.86,SW,228,0.0,0.0,82,0.00,,,0.00,114,Wunderground v.1.15,2013-06-11 14:26:00,
2013-06-11 07:32:00,60.0,54.2,29.86,WNW,290,0.0,0.0,81,0.00,,,0.00,144,Wunderground v.1.15,2013-06-11 14:32:00,
2013-06-11 07:38:00,60.3,54.4,29.86,WNW,290,0.0,0.0,81,0.00,,,0.00,162,Wunderground v.1.15,2013-06-11 14:38:00,
2013-06-11 07:44:00,60.7,54.8,29.86,West,275,0.0,0.0,81,0.00,,,0.00,132,Wunderground v.1.15,2013-06-11 14:44:00,
2013-06-11 07:50:00,61.1,54.9,29.86,West,270,0.0,0.0,80,0.00,,,0.00,109,Wunderground v.1.15,2013-06-11 14:50:00,
2013-06-11 07:56:00,61.4,54.8,29.86,WSW,256,0.0,0.0,79,0.00,,,0.00,81,Wunderground v.1.15,2013-06-11 14:56:00,
2013-06-11 08:02:00,61.5,54.9,29.87,WSW,256,0.0,3.0,79,0.00,,,0.00,81,Wunderground v.1.15,2013-06-11 15:02:00,
2013-06-11 08:08:00,61.6,55.0,29.86,WSW,256,0.0,3.0,79,0.00,,,0.00,70,Wunderground v.1.15,2013-06-11 15:08:00,
2013-06-11 08:14:00,61.7,55.1,29.87,WSW,255,0.0,0.0,79,0.00,,,0.00,323,Wunderground v.1.15,2013-06-11 15:14:00,
2013-06-11 08:20:00,62.6,56.3,29.87,WSW,241,0.0,0.0,80,0.00,,,0.00,418,Wunderground v.1.15,2013-06-11 15:20:00,
2013-06-11 08:26:00,63.5,55.8,29.87,SW,236,0.0,2.0,76,0.00,,,0.00,441,Wunderground v.1.15,2013-06-11 15:26:00,
2013-06-11 08:32:00,64.1,55.6,29.88,SW,235,2.0,4.0,74,0.00,,,0.00,392,Wunderground v.1.15,2013-06-11 15:32:00,
2013-06-11 08:38:00,64.7,55.8,29.88,SW,232,3.0,4.0,73,0.00,,,0.00,390,Wunderground v.1.15,2013-06-11 15:38:00,
2013-06-11 08:44:00,65.3,56.0,29.88,WSW,237,2.0,3.0,72,0.00,,,0.00,520,Wunderground v.1.15,2013-06-11 15:44:00,
2013-06-11 08:50:00,66.4,56.7,29.88,SW,234,1.0,1.0,71,0.00,,,0.00,557,Wunderground v.1.15,2013-06-11 15:50:00,
2013-06-11 08:56:00,67.3,56.4,29.88,SW,229,0.0,1.0,68,0.00,,,0.00,533,Wunderground v.1.15,2013-06-11 15:56:00,
2013-06-11 09:02:00,67.6,56.2,29.88,SW,231,0.0,0.0,67,0.00,,,0.00,561,Wunderground v.1.15,2013-06-11 16:02:00,
2013-06-11 09:08:00,68.0,55.8,29.88,SW,221,1.0,3.0,65,0.00,,,0.00,563,Wunderground v.1.15,2013-06-11 16:08:00,
2013-06-11 09:14:00,68.3,55.2,29.88,SW,234,3.0,3.0,63,0.00,,,0.00,571,Wunderground v.1.15,2013-06-11 16:14:00,
2013-06-11 09:20:00,68.9,55.3,29.88,SW,236,1.0,1.0,62,0.00,,,0.00,592,Wunderground v.1.15,2013-06-11 16:20:00,
2013-06-11 09:26:00,69.4,55.4,29.89,SW,223,1.0,4.0,61,0.00,,,0.00,613,Wunderground v.1.15,2013-06-11 16:26:00,
2013-06-11 09:32:00,70.2,55.7,29.89,SW,218,1.0,2.0,60,0.00,,,0.00,631,Wunderground v.1.15,2013-06-11 16:32:00,
2013-06-11 09:38:00,70.5,55.9,29.89,SSW,211,1.0,2.0,60,0.00,,,0.00,650,Wunderground v.1.15,2013-06-11 16:38:00,
2013-06-11 09:44:00,71.1,56.0,29.89,SW,231,1.0,1.0,59,0.00,,,0.00,670,Wunderground v.1.15,2013-06-11 16:44:00,
2013-06-11 09:50:00,71.6,57.0,29.89,WSW,252,0.0,0.0,60,0.00,,,0.00,684,Wunderground v.1.15,2013-06-11 16:50:00,
2013-06-11 09:56:00,71.9,56.3,29.88,WSW,248,0.0,0.0,58,0.00,,,0.00,700,Wunderground v.1.15,2013-06-11 16:56:00,
2013-06-11 10:02:00,72.5,56.4,29.88,WSW,246,0.0,6.0,57,0.00,,,0.00,715,Wunderground v.1.15,2013-06-11 17:02:00,
2013-06-11 10:08:00,72.7,56.1,29.88,WSW,245,0.0,6.0,56,0.00,,,0.00,733,Wunderground v.1.15,2013-06-11 17:08:00,
2013-06-11 10:14:00,73.0,56.9,29.88,South,182,1.0,1.0,57,0.00,,,0.00,747,Wunderground v.1.15,2013-06-11 17:14:00,
2013-06-11 10:20:00,73.5,56.3,29.88,SW,226,1.0,1.0,55,0.00,,,0.00,761,Wunderground v.1.15,2013-06-11 17:20:00,
2013-06-11 10:26:00,73.7,57.0,29.88,SW,217,1.0,1.0,56,0.00,,,0.00,779,Wunderground v.1.15,2013-06-11 17:26:00,
2013-06-11 10:32:00,73.9,55.7,29.88,ESE,108,1.0,3.0,53,0.00,,,0.00,791,Wunderground v.1.15,2013-06-11 17:32:00,
2013-06-11 10:38:00,74.3,57.1,29.88,East,94,1.0,3.0,55,0.00,,,0.00,816,Wunderground v.1.15,2013-06-11 17:38:00,
2013-06-11 10:44:00,74.5,55.7,29.88,East,94,1.0,1.0,52,0.00,,,0.00,821,Wunderground v.1.15,2013-06-11 17:44:00,
2013-06-11 10:50:00,74.8,56.5,29.88,East,96,0.0,0.0,53,0.00,,,0.00,830,Wunderground v.1.15,2013-06-11 17:50:00,
2013-06-11 10:58:00,76.0,57.6,29.88,ENE,69,0.0,1.0,53,0.00,,,0.00,854,Wunderground v.1.15,2013-06-11 17:58:00,
2013-06-11 11:04:00,76.4,57.5,29.88,ESE,103,0.0,6.0,52,0.00,,,0.00,872,Wunderground v.1.15,2013-06-11 18:04:00,
2013-06-11 11:10:00,76.2,57.3,29.89,ESE,111,1.0,1.0,52,0.00,,,0.00,879,Wunderground v.1.15,2013-06-11 18:10:00,
2013-06-11 11:16:00,76.2,57.3,29.89,WSW,247,1.0,6.0,52,0.00,,,0.00,893,Wunderground v.1.15,2013-06-11 18:16:00,
2013-06-11 11:22:00,76.2,57.8,29.89,SW,231,2.0,2.0,53,0.00,,,0.00,902,Wunderground v.1.15,2013-06-11 18:22:00,
2013-06-11 11:28:00,76.6,58.2,29.89,SSW,200,2.0,4.0,53,0.00,,,0.00,911,Wunderground v.1.15,2013-06-11 18:28:00,
2013-06-11 11:34:00,77.4,57.9,29.89,SE,139,1.0,3.0,51,0.00,,,0.00,914,Wunderground v.1.15,2013-06-11 18:34:00,
2013-06-11 11:40:00,78.2,57.5,29.89,SE,129,2.0,2.0,49,0.00,,,0.00,932,Wunderground v.1.15,2013-06-11 18:40:00,
2013-06-11 11:46:00,78.2,58.0,29.89,South,179,3.0,4.0,50,0.00,,,0.00,946,Wunderground v.1.15,2013-06-11 18:46:00,
2013-06-11 11:52:00,78.2,57.5,29.89,South,181,2.0,5.0,49,0.00,,,0.00,928,Wunderground v.1.15,2013-06-11 18:52:00,
2013-06-11 11:58:00,78.5,57.7,29.89,SSE,156,3.0,5.0,49,0.00,,,0.00,408,Wunderground v.1.15,2013-06-11 18:58:00,
2013-06-11 12:04:00,78.5,56.6,29.89,South,178,2.0,6.0,47,0.00,,,0.00,422,Wunderground v.1.15,2013-06-11 19:04:00,
2013-06-11 12:10:00,78.3,58.1,29.89,ESE,113,2.0,2.0,50,0.00,,,0.00,721,Wunderground v.1.15,2013-06-11 19:10:00,
2013-06-11 12:16:00,78.3,58.1,29.88,ESE,113,1.0,2.0,50,0.00,,,0.00,1109,Wunderground v.1.15,2013-06-11 19:16:00,
2013-06-11 12:22:00,79.0,58.2,29.88,ESE,107,1.0,3.0,49,0.00,,,0.00,1097,Wunderground v.1.15,2013-06-11 19:22:00,
2013-06-11 12:28:00,79.3,58.5,29.88,SSE,161,1.0,3.0,49,0.00,,,0.00,1092,Wunderground v.1.15,2013-06-11 19:28:00,
2013-06-11 12:34:00,79.7,58.8,29.88,East,96,2.0,7.0,49,0.00,,,0.00,1090,Wunderground v.1.15,2013-06-11 19:34:00,
2013-06-11 12:40:00,79.9,59.0,29.88,East,82,3.0,3.0,49,0.00,,,0.00,1055,Wunderground v.1.15,2013-06-11 19:40:00,
2013-06-11 12:46:00,80.6,58.5,29.88,SSW,198,2.0,4.0,47,0.00,,,0.00,1032,Wunderground v.1.15,2013-06-11 19:46:00,
2013-06-11 12:52:00,80.1,58.6,29.87,WNW,284,1.0,2.0,48,0.00,,,0.00,1023,Wunderground v.1.15,2013-06-11 19:52:00,
2013-06-11 12:58:00,80.9,60.5,29.87,ESE,117,1.0,2.0,50,0.00,,,0.00,1018,Wunderground v.1.15,2013-06-11 19:58:00,
2013-06-11 13:04:00,80.9,58.2,29.87,West,275,2.0,8.0,46,0.00,,,0.00,1014,Wunderground v.1.15,2013-06-11 20:04:00,
2013-06-11 13:10:00,80.2,58.1,29.87,SW,223,3.0,3.0,47,0.00,,,0.00,1013,Wunderground v.1.15,2013-06-11 20:10:00,
2013-06-11 13:16:00,79.8,57.8,29.87,WSW,237,4.0,4.0,47,0.00,,,0.00,1009,Wunderground v.1.15,2013-06-11 20:16:00,
2013-06-11 13:22:00,79.7,57.7,29.87,WSW,242,2.0,2.0,47,0.00,,,0.00,1009,Wunderground v.1.15,2013-06-11 20:22:00,
2013-06-11 13:28:00,80.2,59.3,29.86,SW,217,1.0,2.0,49,0.00,,,0.00,1011,Wunderground v.1.15,2013-06-11 20:28:00,
2013-06-11 13:34:00,81.1,59.0,29.86,SE,129,2.0,3.0,47,0.00,,,0.00,1014,Wunderground v.1.15,2013-06-11 20:34:00,
2013-06-11 13:40:00,81.6,59.4,29.86,SE,124,2.0,2.0,47,0.00,,,0.00,1020,Wunderground v.1.15,2013-06-11 20:40:00,
2013-06-11 13:46:00,81.8,58.4,29.86,SW,219,1.0,2.0,45,0.00,,,0.00,1018,Wunderground v.1.15,2013-06-11 20:46:00,
2013-06-11 13:52:00,82.2,58.7,29.85,ESE,123,1.0,2.0,45,0.00,,,0.00,1028,Wunderground v.1.15,2013-06-11 20:52:00,
2013-06-11 13:58:00,82.9,58.7,29.85,East,94,2.0,6.0,44,0.00,,,0.00,1037,Wunderground v.1.15,2013-06-11 20:58:00,
2013-06-11 14:04:00,83.0,59.5,29.85,SW,221,2.0,9.0,45,0.00,,,0.00,1032,Wunderground v.1.15,2013-06-11 21:04:00,
2013-06-11 14:10:00,83.3,58.5,29.85,SSW,207,2.0,4.0,43,0.00,,,0.00,1032,Wunderground v.1.15,2013-06-11 21:10:00,
2013-06-11 14:16:00,83.1,57.6,29.85,SE,129,2.0,5.0,42,0.00,,,0.00,1049,Wunderground v.1.15,2013-06-11 21:16:00,
2013-06-11 14:22:00,83.3,59.1,29.85,SE,132,4.0,4.0,44,0.00,,,0.00,1062,Wunderground v.1.15,2013-06-11 21:22:00,
2013-06-11 14:28:00,83.5,59.3,29.84,ESE,113,3.0,7.0,44,0.00,,,0.00,1060,Wunderground v.1.15,2013-06-11 21:28:00,
2013-06-11 14:34:00,83.7,56.8,29.84,SE,138,2.0,3.0,40,0.00,,,0.00,1048,Wunderground v.1.15,2013-06-11 21:34:00,
2013-06-11 14:40:00,83.6,57.4,29.84,WSW,237,3.0,8.0,41,0.00,,,0.00,1042,Wunderground v.1.15,2013-06-11 21:40:00,
2013-06-11 14:46:00,83.6,56.0,29.84,South,177,5.0,8.0,39,0.00,,,0.00,1035,Wunderground v.1.15,2013-06-11 21:46:00,
2013-06-11 14:52:00,83.5,54.5,29.83,WSW,244,4.0,5.0,37,0.00,,,0.00,939,Wunderground v.1.15,2013-06-11 21:52:00,
2013-06-11 14:58:00,83.4,57.2,29.83,South,171,3.0,5.0,41,0.00,,,0.00,951,Wunderground v.1.15,2013-06-11 21:58:00,
2013-06-11 15:04:00,83.9,57.0,29.83,SW,235,3.0,10.0,40,0.00,,,0.00,814,Wunderground v.1.15,2013-06-11 22:04:00,
2013-06-11 15:10:00,84.2,55.8,29.83,SSW,194,5.0,5.0,38,0.00,,,0.00,912,Wunderground v.1.15,2013-06-11 22:10:00,
2013-06-11 15:18:00,84.0,55.7,29.83,ESE,115,4.0,5.0,38,0.00,,,0.00,865,Wunderground v.1.15,2013-06-11 22:18:00,
2013-06-11 15:24:00,84.4,56.0,29.82,SW,223,2.0,4.0,38,0.00,,,0.00,919,Wunderground v.1.15,2013-06-11 22:24:00,
2013-06-11 15:30:00,84.7,54.8,29.82,SW,224,3.0,4.0,36,0.00,,,0.00,872,Wunderground v.1.15,2013-06-11 22:30:00,
2013-06-11 15:36:00,84.6,55.5,29.82,SW,215,3.0,6.0,37,0.00,,,0.00,821,Wunderground v.1.15,2013-06-11 22:36:00,
2013-06-11 15:42:00,84.7,56.3,29.82,ESE,103,2.0,3.0,38,0.00,,,0.00,895,Wunderground v.1.15,2013-06-11 22:42:00,
2013-06-11 15:48:00,85.3,56.1,29.81,SSW,198,3.0,3.0,37,0.00,,,0.00,872,Wunderground v.1.15,2013-06-11 22:48:00,
2013-06-11 15:54:00,85.4,56.2,29.81,SSW,204,2.0,5.0,37,0.00,,,0.00,856,Wunderground v.1.15,2013-06-11 22:54:00,
2013-06-11 16:00:00,85.5,56.3,29.81,South,180,3.0,3.0,37,0.00,,,0.00,833,Wunderground v.1.15,2013-06-11 23:00:00,
2013-06-11 16:06:00,86.0,58.2,29.81,SE,132,2.0,11.0,39,0.00,,,0.00,793,Wunderground v.1.15,2013-06-11 23:06:00,
2013-06-11 16:12:00,86.6,57.2,29.81,SSW,209,2.0,5.0,37,0.00,,,0.00,737,Wunderground v.1.15,2013-06-11 23:12:00,
2013-06-11 16:18:00,86.1,56.8,29.81,SW,223,3.0,5.0,37,0.00,,,0.00,638,Wunderground v.1.15,2013-06-11 23:18:00,
2013-06-11 16:24:00,85.6,57.1,29.81,WSW,251,3.0,5.0,38,0.00,,,0.00,747,Wunderground v.1.15,2013-06-11 23:24:00,
2013-06-11 16:30:00,85.8,56.5,29.80,SW,223,3.0,3.0,37,0.00,,,0.00,742,Wunderground v.1.15,2013-06-11 23:30:00,
2013-06-11 16:36:00,86.1,56.8,29.80,South,184,2.0,4.0,37,0.00,,,0.00,679,Wunderground v.1.15,2013-06-11 23:36:00,
2013-06-11 16:42:00,86.3,56.2,29.80,SE,132,2.0,4.0,36,0.00,,,0.00,670,Wunderground v.1.15,2013-06-11 23:42:00,
2013-06-11 16:48:00,86.7,56.6,29.80,SSE,157,2.0,4.0,36,0.00,,,0.00,635,Wunderground v.1.15,2013-06-11 23:48:00,
2013-06-11 16:54:00,86.6,56.5,29.80,SSE,165,3.0,5.0,36,0.00,,,0.00,624,Wunderground v.1.15,2013-06-11 23:54:00,
2013-06-11 17:00:00,86.2,55.3,29.79,South,181,3.0,3.0,35,0.00,,,0.00,624,Wunderground v.1.15,2013-06-12 00:00:00,
2013-06-11 17:06:00,86.3,54.6,29.79,SE,139,2.0,11.0,34,0.00,,,0.00,608,Wunderground v.1.15,2013-06-12 00:06:00,
2013-06-11 17:12:00,86.5,54.8,29.79,SSE,168,2.0,4.0,34,0.00,,,0.00,605,Wunderground v.1.15,2013-06-12 00:12:00,
2013-06-11 17:18:00,86.3,56.2,29.79,WSW,244,3.0,6.0,36,0.00,,,0.00,568,Wunderground v.1.15,2013-06-12 00:18:00,
2013-06-11 17:24:00,86.0,55.2,29.78,South,189,3.0,4.0,35,0.00,,,0.00,555,Wunderground v.1.15,2013-06-12 00:24:00,
2013-06-11 17:30:00,86.0,55.2,29.78,South,175,2.0,2.0,35,0.00,,,0.00,538,Wunderground v.1.15,2013-06-12 00:30:00,
2013-06-11 17:36:00,86.1,55.2,29.78,South,175,2.0,3.0,35,0.00,,,0.00,547,Wunderground v.1.15,2013-06-12 00:36:00,
2013-06-11 17:42:00,86.2,54.5,29.78,South,189,1.0,4.0,34,0.00,,,0.00,545,Wunderground v.1.15,2013-06-12 00:42:00,
2013-06-11 17:48:00,86.5,54.8,29.78,South,179,2.0,4.0,34,0.00,,,0.00,457,Wunderground v.1.15,2013-06-12 00:48:00,
2013-06-11 17:54:00,86.9,53.5,29.78,SE,144,1.0,4.0,32,0.00,,,0.00,513,Wunderground v.1.15,2013-06-12 00:54:00,
2013-06-11 18:00:00,87.2,51.1,29.77,ESE,115,1.0,4.0,29,0.00,,,0.00,461,Wunderground v.1.15,2013-06-12 01:00:00,
2013-06-11 18:06:00,87.0,50.0,29.77,SE,132,2.0,10.0,28,0.00,,,0.00,471,Wunderground v.1.15,2013-06-12 01:06:00,
2013-06-11 18:12:00,86.9,49.9,29.77,SSE,148,1.0,5.0,28,0.00,,,0.00,436,Wunderground v.1.15,2013-06-12 01:12:00,
2013-06-11 18:18:00,87.0,50.9,29.77,SE,145,1.0,5.0,29,0.00,,,0.00,390,Wunderground v.1.15,2013-06-12 01:18:00,
2013-06-11 18:24:00,87.0,50.9,29.77,SSE,148,1.0,2.0,29,0.00,,,0.00,362,Wunderground v.1.15,2013-06-12 01:24:00,
2013-06-11 18:30:00,86.7,50.6,29.77,SE,136,1.0,1.0,29,0.00,,,0.00,295,Wunderground v.1.15,2013-06-12 01:30:00,
2013-06-11 18:36:00,86.6,51.5,29.77,SE,136,1.0,1.0,30,0.00,,,0.00,243,Wunderground v.1.15,2013-06-12 01:36:00,
2013-06-11 18:42:00,86.1,52.8,29.77,SSE,148,1.0,1.0,32,0.00,,,0.00,330,Wunderground v.1.15,2013-06-12 01:42:00,
2013-06-11 18:48:00,85.8,54.2,29.77,SSE,159,1.0,2.0,34,0.00,,,0.00,320,Wunderground v.1.15,2013-06-12 01:48:00,
2013-06-11 18:54:00,86.1,53.6,29.77,SSE,163,1.0,3.0,33,0.00,,,0.00,288,Wunderground v.1.15,2013-06-12 01:54:00,
2013-06-11 19:00:00,86.1,54.5,29.77,SSE,161,1.0,1.0,34,0.00,,,0.00,243,Wunderground v.1.15,2013-06-12 02:00:00,
2013-06-11 19:06:00,85.7,52.4,29.77,SE,128,2.0,5.0,32,0.00,,,0.00,244,Wunderground v.1.15,2013-06-12 02:06:00,
2013-06-11 19:12:00,84.9,55.7,29.77,SE,134,3.0,3.0,37,0.00,,,0.00,216,Wunderground v.1.15,2013-06-12 02:12:00,
2013-06-11 19:18:00,84.2,56.6,29.77,SE,128,2.0,9.0,39,0.00,,,0.00,190,Wunderground v.1.15,2013-06-12 02:18:00,
2013-06-11 19:24:00,83.5,56.6,29.77,SE,138,2.0,5.0,40,0.00,,,0.00,163,Wunderground v.1.15,2013-06-12 02:24:00,
2013-06-11 19:30:00,82.9,57.5,29.77,SE,137,2.0,3.0,42,0.00,,,0.00,139,Wunderground v.1.15,2013-06-12 02:30:00,
2013-06-11 19:36:00,82.5,57.7,29.77,SE,136,1.0,3.0,43,0.00,,,0.00,113,Wunderground v.1.15,2013-06-12 02:36:00,
2013-06-11 19:42:00,82.2,58.1,29.77,SE,136,1.0,1.0,44,0.00,,,0.00,86,Wunderground v.1.15,2013-06-12 02:42:00,
2013-06-11 19:48:00,82.2,58.1,29.77,SE,134,0.0,1.0,44,0.00,,,0.00,63,Wunderground v.1.15,2013-06-12 02:48:00,
2013-06-11 19:54:00,81.5,58.1,29.77,SE,134,0.0,1.0,45,0.00,,,0.00,51,Wunderground v.1.15,2013-06-12 02:54:00,
2013-06-11 20:00:00,80.7,58.0,29.77,SE,136,0.0,0.0,46,0.00,,,0.00,30,Wunderground v.1.15,2013-06-12 03:00:00,
2013-06-11 20:06:00,79.9,58.5,29.77,SE,136,0.0,7.0,48,0.00,,,0.00,23,Wunderground v.1.15,2013-06-12 03:06:00,
2013-06-11 20:12:00,78.9,58.1,29.77,SE,136,0.0,0.0,49,0.00,,,0.00,19,Wunderground v.1.15,2013-06-12 03:12:00,
2013-06-11 20:18:00,77.9,57.8,29.76,SE,136,0.0,0.0,50,0.00,,,0.00,16,Wunderground v.1.15,2013-06-12 03:18:00,
2013-06-11 20:24:00,77.1,57.6,29.76,SE,136,0.0,0.0,51,0.00,,,0.00,12,Wunderground v.1.15,2013-06-12 03:24:00,
2013-06-11 20:30:00,76.4,57.5,29.76,SE,136,0.0,0.0,52,0.00,,,0.00,9,Wunderground v.1.15,2013-06-12 03:30:00,
2013-06-11 20:36:00,75.8,57.4,29.76,SE,137,0.0,0.0,53,0.00,,,0.00,5,Wunderground v.1.15,2013-06-12 03:36:00,
2013-06-11 20:42:00,75.2,57.4,29.76,SE,137,0.0,0.0,54,0.00,,,0.00,0,Wunderground v.1.15,2013-06-12 03:42:00,
2013-06-11 20:48:00,74.7,57.5,29.76,SE,138,0.0,0.0,55,0.00,,,0.00,0,Wunderground v.1.15,2013-06-12 03:48:00,
2013-06-11 20:54:00,74.2,57.5,29.76,SE,138,0.0,0.0,56,0.00,,,0.00,0,Wunderground v.1.15,2013-06-12 03:54:00,
2013-06-11 21:00:00,73.7,57.5,29.76,SE,136,0.0,0.0,57,0.00,,,0.00,0,Wunderground v.1.15,2013-06-12 04:00:00,
2013-06-11 21:02:00,73.5,57.3,29.76,SE,136,0.0,9.0,57,0.00,,,0.00,0,Wunderground v.1.15,2013-06-12 04:02:00,
2013-06-11 21:04:00,73.3,57.6,29.76,SE,136,0.0,9.0,58,0.00,,,0.00,0,Wunderground v.1.15,2013-06-12 04:04:00,
2013-06-11 21:06:00,73.1,57.4,29.76,SE,136,0.0,9.0,58,0.00,,,0.00,0,Wunderground v.1.15,2013-06-12 04:06:00,
2013-06-11 21:12:00,72.4,57.3,29.76,SE,136,0.0,0.0,59,0.00,,,0.00,0,Wunderground v.1.15,2013-06-12 04:12:00,
2013-06-11 21:14:00,72.3,57.2,29.77,SE,136,0.0,0.0,59,0.00,,,0.00,0,Wunderground v.1.15,2013-06-12 04:14:00,
2013-06-11 21:18:00,72.1,57.0,29.77,SE,136,0.0,0.0,59,0.00,,,0.00,0,Wunderground v.1.15,2013-06-12 04:18:00,
2013-06-11 21:24:00,71.7,56.6,29.77,SE,136,0.0,0.0,59,0.00,,,0.00,0,Wunderground v.1.15,2013-06-12 04:24:00,
2013-06-11 21:30:00,71.4,56.8,29.77,SE,136,0.0,0.0,60,0.00,,,0.00,0,Wunderground v.1.15,2013-06-12 04:30:00,
2013-06-11 21:36:00,70.9,56.8,29.77,SE,136,0.0,0.0,61,0.00,,,0.00,0,Wunderground v.1.15,2013-06-12 04:36:00,
2013-06-11 21:42:00,70.6,56.9,29.77,SE,136,0.0,0.0,62,0.00,,,0.00,0,Wunderground v.1.15,2013-06-12 04:42:00,
2013-06-11 21:48:00,70.3,56.7,29.77,SE,136,0.0,0.0,62,0.00,,,0.00,0,Wunderground v.1.15,2013-06-12 04:48:00,
2013-06-11 21:54:00,70.0,56.8,29.78,SE,136,0.0,0.0,63,0.00,,,0.00,0,Wunderground v.1.15,2013-06-12 04:54:00,
2013-06-11 22:00:00,69.6,56.4,29.78,SE,136,0.0,2.0,63,0.00,,,0.00,0,Wunderground v.1.15,2013-06-12 05:00:00,
2013-06-11 22:06:00,69.2,56.5,29.78,SE,134,1.0,3.0,64,0.00,,,0.00,0,Wunderground v.1.15,2013-06-12 05:06:00,
2013-06-11 22:12:00,68.7,56.0,29.78,SE,134,0.0,0.0,64,0.00,,,0.00,0,Wunderground v.1.15,2013-06-12 05:12:00,
2013-06-11 22:18:00,68.3,56.1,29.78,SE,134,0.0,0.0,65,0.00,,,0.00,0,Wunderground v.1.15,2013-06-12 05:18:00,
2013-06-11 22:24:00,68.0,56.2,29.78,SE,134,0.0,0.0,66,0.00,,,0.00,0,Wunderground v.1.15,2013-06-12 05:24:00,
2013-06-11 22:30:00,67.7,55.9,29.78,SE,134,0.0,0.0,66,0.00,,,0.00,0,Wunderground v.1.15,2013-06-12 05:30:00,
2013-06-11 22:36:00,67.4,56.1,29.78,SE,134,0.0,0.0,67,0.00,,,0.00,0,Wunderground v.1.15,2013-06-12 05:36:00,
2013-06-11 22:42:00,67.0,55.7,29.78,SE,134,0.0,0.0,67,0.00,,,0.00,0,Wunderground v.1.15,2013-06-12 05:42:00,
2013-06-11 22:48:00,66.7,55.4,29.78,SE,134,0.0,0.0,67,0.00,,,0.00,0,Wunderground v.1.15,2013-06-12 05:48:00,
2013-06-11 22:54:00,66.3,55.4,29.78,SE,134,0.0,0.0,68,0.00,,,0.00,0,Wunderground v.1.15,2013-06-12 05:54:00,
2013-06-11 23:00:00,65.9,55.4,29.78,SE,134,0.0,0.0,69,0.00,,,0.00,0,Wunderground v.1.15,2013-06-12 06:00:00,
2013-06-11 23:06:00,65.5,55.5,29.78,SE,134,0.0,5.0,70,0.00,,,0.00,0,Wunderground v.1.15,2013-06-12 06:06:00,
2013-06-11 23:12:00,65.2,55.2,29.78,SE,134,0.0,0.0,70,0.00,,,0.00,0,Wunderground v.1.15,2013-06-12 06:12:00,
2013-06-11 23:18:00,64.9,54.9,29.78,SE,134,0.0,0.0,70,0.00,,,0.00,0,Wunderground v.1.15,2013-06-12 06:18:00,
2013-06-11 23:24:00,64.7,55.1,29.78,SE,134,0.0,0.0,71,0.00,,,0.00,0,Wunderground v.1.15,2013-06-12 06:24:00,
2013-06-11 23:30:00,64.5,54.9,29.78,SE,134,0.0,0.0,71,0.00,,,0.00,0,Wunderground v.1.15,2013-06-12 06:30:00,
2013-06-11 23:36:00,64.3,54.7,29.78,SE,134,0.0,0.0,71,0.00,,,0.00,0,Wunderground v.1.15,2013-06-12 06:36:00,
2013-06-11 23:42:00,64.1,54.5,29.78,SE,134,0.0,0.0,71,0.00,,,0.00,0,Wunderground v.1.15,2013-06-12 06:42:00,
2013-06-11 23:48:00,63.9,54.7,29.78,SE,134,0.0,0.0,72,0.00,,,0.00,0,Wunderground v.1.15,2013-06-12 06:48:00,
2013-06-11 23:54:00,63.7,54.5,29.78,SE,134,0.0,0.0,72,0.00,,,0.00,0,Wunderground v.1.15,2013-06-12 06:54:00,